Home   Weather   Washim   Past weeks
Flag for India

Past Weather in Washim, Maharashtra, India — Yesterday and Last 2 Weeks

Now
73 °F

Haze.


Feels Like: 76 °F
Forecast: 85 / 64 °F
Wind: 5 mph from Northeast

Location: Nagpur Sonegaon

Current Time: Nov 15, 2019 at 10:20:38 am

Latest Report: Nov 15, 2019 at 9:30 am


Visibility: 2 mi

Pressure: 30.07 "Hg (28.23 "Hg at 546m altitude)

Humidity: 65%

Dew Point: 61 °F

Location of WashimLocation

Past Weather in Washim — Graph

°F

Washim Temperature Yesterday

Maximum temperature yesterday: 82 °F (at 1:00 pm)
Minimum temperature yesterday: 61 °F (at 6:30 am)
Average temperature yesterday: 71 °F

High & Low Weather Summary for the Past Weeks

 TemperatureHumidityPressure
High88 °F (Oct 31, 1:30 pm)100% (Nov 1, 7:00 am)30.09 "Hg (Nov 1, 7:00 am)
Low61 °F (Nov 13, 6:00 am)37% (Nov 9, 2:00 pm)29.56 "Hg (Nov 7, 4:00 pm)
Average76 °F71%29.94 "Hg
* Reported Oct 31 9:30 am — Nov 15 9:00 am, Washim. Weather by CustomWeather, © 2019

Note: Actual official high and low records may vary slightly from our data, if they occured in-between our weather recording intervals... More about our weather records

Advertising

Washim Weather History for the Previous 24 Hours

Scroll right to see more
 ConditionsComfort  
Time TempWeatherWind HumidityBarometerVisibility
9:00 am
Fri, Nov 15
72 °FFog.3 mph65%30.07 "Hg1 mi
8:30 am70 °FFog.3 mph73%30.04 "Hg1 mi
8:00 am68 °FFog.3 mph73%30.04 "Hg1 mi
7:30 am66 °FFog.No wind78%30.04 "Hg1 mi
7:00 am63 °FFog.2 mph88%30.01 "Hg1 mi
6:30 am63 °FFog.No wind88%30.01 "Hg1 mi
6:00 am63 °FFog.3 mph88%29.98 "Hg1 mi
5:30 am63 °FFog.3 mph88%29.98 "Hg1 mi
5:00 am64 °FFog.3 mph83%29.98 "Hg1 mi
4:30 am64 °FFog.2 mph83%29.98 "Hg1 mi
4:00 am64 °FFog.5 mph83%29.98 "Hg1 mi
3:30 am64 °FFog.5 mph83%29.98 "Hg1 mi
3:00 am66 °FFog.5 mph78%29.98 "Hg1 mi
2:30 am64 °FFog.3 mph83%29.98 "Hg1 mi
2:00 am64 °FFog.No wind83%29.98 "Hg1 mi
1:30 am64 °FFog.2 mph83%29.98 "Hg1 mi
1:00 am64 °FFog.3 mph83%30.01 "Hg1 mi
12:30 am64 °FFog.No wind83%30.01 "Hg1 mi
12:00 am66 °FFog.No wind78%30.01 "Hg1 mi
11:30 pm
Thu, Nov 14
66 °FFog.No wind78%30.01 "Hg1 mi
11:00 pm64 °FFog.No wind83%30.01 "Hg1 mi
10:30 pm64 °FFog.No wind83%30.04 "Hg1 mi
10:00 pm64 °FFog.No wind83%30.04 "Hg1 mi
9:30 pm66 °FFog.No wind78%30.04 "Hg1 mi
9:00 pm70 °FFog.No wind69%30.04 "Hg1 mi
8:30 pm70 °FFog.No wind69%30.04 "Hg1 mi
8:00 pm72 °FHaze.No wind65%30.01 "Hg1 mi
7:30 pm72 °FHaze.No wind61%30.01 "Hg1 mi
7:00 pm72 °FHaze.No wind61%30.01 "Hg1 mi
6:30 pm75 °FHaze.2 mph50%29.98 "Hg1 mi
6:00 pm77 °FHaze.3 mph47%29.98 "Hg1 mi
5:30 pm77 °FHaze.3 mph47%29.95 "Hg2 mi
5:00 pm79 °FHaze.2 mph48%29.95 "Hg2 mi
4:30 pm79 °FHaze.5 mph45%29.95 "Hg2 mi
4:00 pm81 °FHaze.5 mph42%29.95 "Hg2 mi
3:30 pm81 °FHaze.5 mph42%29.95 "Hg2 mi
3:00 pm82 °FHaze.7 mph42%29.98 "Hg2 mi
2:30 pm82 °FHaze.3 mph37%29.98 "Hg2 mi
2:00 pm81 °FHaze.3 mph42%29.98 "Hg2 mi
1:30 pm82 °FHaze.6 mph42%29.98 "Hg2 mi
1:00 pm82 °FHaze.6 mph42%30.01 "Hg2 mi
12:30 pm81 °FHaze.7 mph45%30.04 "Hg2 mi
12:00 pm81 °FHaze.7 mph45%30.07 "Hg2 mi
11:30 am79 °FHaze.5 mph51%30.07 "Hg2 mi
11:00 am79 °FHaze.6 mph54%30.09 "Hg2 mi
Weather by CustomWeather, © 2019

See weather overview